Tracking 27107 objects as of 21-Mar-2023
HD Live streaming from Space Station
objects crossing your sky now

DMSP 5D-2 F11 DEB

Track DMSP 5D-2 F11 DEB now!
10-day predictions


NORAD ID: 28317
Int'l Code: 1991-082AE
Perigee: 754.5 km
Apogee: 937.8 km
Inclination: 98.9 °
Period: 101.7 minutes
Semi major axis: 7217 km
RCS: 0.0133 m2 (small)
Launch date: November 28, 1991
Source: United States (US)
Launch site: AIR FORCE WESTERN TEST RANGE (AFWTR)

Note: This is SATELLITE DEBRIS
Your satellite tracking list
Your tracking list is empty




NASA's NSSDC Master Catalog

Two Line Element Set (TLE):
1 28317U 91082AE  23079.47159747  .00001881  00000-0  90268-3 0  9992
2 28317  98.8791  81.8129 0126945  78.2566  73.8776 14.15966896975267
Source of the keplerian elements: AFSPC